Philadelphia, PA

10:58 AM EDT on July 22, 2017 (GMT -0400)
Philadelphia International

Weather History for KPHL - November, 2013

Change the Weather History Date:

Tuesday, November 5, 2013

  Actual Average Record
Temperature  
Mean Temperature 50 °F 51 °F  
Max Temperature 61 °F 60 °F 80 °F (1961)
Min Temperature 38 °F 42 °F 26 °F (1879)
Degree Days  
Heating Degree Days 15 14  
Month to date heating degree days 64 67  
Since 1 July heating degree days 293 360  
Cooling Degree Days 0 0  
Month to date cooling degree days 0 0  
Year to date cooling degree days 1411 1300  
Moisture  
Dew Point 36 °F    
Average Humidity 61    
Maximum Humidity 80    
Minimum Humidity 42    
Precipitation  
Precipitation 0.00 in 0.10 in 1.48 in (1877)
Month to date precipitation 0.19 0.49  
Year to date precipitation 48.14 35.47  
Snow  
Snow 0.00 in 0.00 in T in (1908)
Month to date snowfall 0.0 0.0  
Since 1 July snowfall 0.0 0.0  
Since 1 September snowfall 0.0 0.0  
Snow Depth 0.00 in    
Sea Level Pressure  
Sea Level Pressure 30.58 in    
Wind  
Wind Speed 5 mph (East)    
Max Wind Speed 10 mph    
Max Gust Speed 15 mph    
Visibility 10 miles    
Events      
T = Trace of Precipitation, MM = Missing Value Source: NWS Daily Summary

Daily Weather History Graph

Daily Weather History Graph

Search for Another Location

Airport or City:

Trip Planner

Search our weather history database for the weather conditions in past years. The results will help you decide how hot, cold, wet, or windy it might be!

Date:

Astronomy

Nov. 05, 2013 Rise Set
Actual Time 6:34 AM EST 4:53 PM EST
Civil Twilight 6:06 AM EST 5:22 PM EST
Nautical Twilight 5:34 AM EST 5:54 PM EST
Astronomical Twilight 5:02 AM EST 6:26 PM EST
Moon 8:46 AM EST (11/5) 6:53 PM EST (11/5)
Length of Visible Light 11h 16m
Length of Day
10h 19m
Waxing Crescent, 6% of the Moon is Illuminated
Nov 5
Waxing Crescent
Nov 10
First Quarter
Nov 17
Full
Nov 25
Last Quarter
Dec 2
New

Hourly Weather History & Observations

Time (EST) Temp. Windchill Dew Point Humidity Pressure Visibility Wind Dir Wind Speed Gust Speed Precip Events Conditions
12:54 AM 39.9 °F 35.8 °F 28.0 °F 63% 30.63 in 10.0 mi NE 5.8 mph - N/A   Mostly Cloudy
1:54 AM 41.0 °F 35.8 °F 28.9 °F 62% 30.61 in 10.0 mi ENE 8.1 mph - N/A   Overcast
2:54 AM 39.9 °F 35.1 °F 28.0 °F 63% 30.61 in 10.0 mi NE 6.9 mph - N/A   Overcast
3:54 AM 39.9 °F 36.7 °F 28.9 °F 65% 30.61 in 10.0 mi NE 4.6 mph - N/A   Overcast
4:54 AM 37.9 °F 33.5 °F 28.9 °F 70% 30.62 in 10.0 mi NE 5.8 mph - N/A   Overcast
5:54 AM 41.0 °F 35.8 °F 28.9 °F 62% 30.62 in 10.0 mi NE 8.1 mph - N/A   Overcast
6:54 AM 42.1 °F 39.2 °F 30.9 °F 65% 30.62 in 10.0 mi NE 4.6 mph - N/A   Mostly Cloudy
7:54 AM 45.0 °F 41.2 °F 33.1 °F 63% 30.62 in 10.0 mi ENE 6.9 mph - N/A   Mostly Cloudy
8:54 AM 48.0 °F - 35.1 °F 61% 30.64 in 10.0 mi NE 5.8 mph - N/A   Mostly Cloudy
9:54 AM 52.0 °F - 36.0 °F 54% 30.63 in 10.0 mi ENE 8.1 mph - N/A   Mostly Cloudy
10:54 AM 57.0 °F - 39.9 °F 53% 30.62 in 10.0 mi East 6.9 mph - N/A   Mostly Cloudy
11:54 AM 57.0 °F - 39.9 °F 53% 30.60 in 10.0 mi East 4.6 mph - N/A   Mostly Cloudy
12:54 PM 59.0 °F - 39.0 °F 48% 30.58 in 10.0 mi Calm Calm - N/A   Mostly Cloudy
1:54 PM 60.1 °F - 37.9 °F 44% 30.56 in 10.0 mi SSW 5.8 mph - N/A   Mostly Cloudy
2:54 PM 60.1 °F - 37.0 °F 42% 30.54 in 10.0 mi SSE 3.5 mph - N/A   Mostly Cloudy
3:54 PM 59.0 °F - 37.0 °F 44% 30.54 in 10.0 mi Calm Calm - N/A   Mostly Cloudy
4:54 PM 55.9 °F - 39.0 °F 53% 30.53 in 10.0 mi SSE 5.8 mph - N/A   Mostly Cloudy
5:54 PM 55.0 °F - 41.0 °F 59% 30.54 in 10.0 mi SSE 8.1 mph - N/A   Mostly Cloudy
6:54 PM 53.1 °F - 42.1 °F 66% 30.55 in 10.0 mi SSE 5.8 mph - N/A   Mostly Cloudy
7:54 PM 51.1 °F - 42.1 °F 71% 30.55 in 10.0 mi ESE 3.5 mph - N/A   Mostly Cloudy
8:54 PM 48.0 °F - 41.0 °F 77% 30.53 in 10.0 mi East 4.6 mph - N/A   Scattered Clouds
9:54 PM 48.0 °F - 41.0 °F 77% 30.52 in 10.0 mi East 3.5 mph - N/A   Mostly Cloudy
10:54 PM 48.0 °F - 42.1 °F 80% 30.50 in 10.0 mi Calm Calm - N/A   Mostly Cloudy
11:54 PM 46.9 °F - 41.0 °F 80% 30.51 in 10.0 mi Calm Calm - N/A   Scattered Clouds